Location: Bidart
(43.4376°N, 1.5913°W)
Time: 01:22:07
(UTC+00:00)

Cosmos 1743 - Pass Details

Date: 19 May 2025
Orbit: 432 x 441 km, 82.5° (Epoch: 18 June)

Event Time Altitude Azimuth Distance (km) Brightness Sun altitude
Rises 20:14:40 0° 2° (N) 2,456 6.7 -7.8°
Reaches altitude 10° 20:16:56 10° 15° (NNE) 1,577 5.5 -8.2°
Maximum altitude 20:19:56 27° 76° (ENE) 881 3.6 -8.6°
Enters shadow 20:22:29 13° 132° (SE) 1,412 4.2 -9.0°
